GFSSW_850_temp_324.txt.gz
Temp
19 19 19 20 20 20 21 22 22 22 23 23 23 23 23 23 23 24 25 25 25 25 25 24 24 22 23 22 23 20 20 22 25 26 26 27 27 26 25 23 24 23 23 22 22
19 19 20 20 20 21 21 22 22 23 23 23 23 23 23 24 24 24 25 25 25 25 25 24 24 24 22 21 21 20 20 23 27 25 27 27 27 27 25 24 23 23 23 23 22
19 19 20 20 20 21 21 22 22 23 23 23 23 23 24 24 24 26 26 26 25 25 24 24 24 26 20 22 22 22 22 26 27 27 28 28 28 28 25 23 23 23 23 23 23
19 20 20 20 21 21 22 22 22 23 23 24 24 24 24 24 25 26 27 26 25 25 25 24 23 24 22 23 23 22 25 26 28 27 29 28 29 28 26 25 24 24 23 23 23
19 20 20 21 21 21 22 22 23 23 24 24 24 24 24 24 26 27 27 26 26 25 25 24 24 24 24 25 24 24 27 29 29 30 30 29 28 28 26 24 24 24 23 23 23
19 20 20 21 21 21 22 22 23 23 24 24 24 24 24 23 27 27 26 26 26 25 25 25 25 25 25 25 23 26 26 29 30 30 29 28 28 27 25 24 24 24 24 24 23
19 20 20 21 21 22 22 22 23 23 24 24 24 24 24 27 27 26 26 26 26 26 26 27 26 27 26 26 27 27 28 29 29 29 28 29 26 26 25 24 24 24 24 24 24
19 20 21 21 22 22 22 23 23 24 24 24 24 24 26 27 26 26 26 26 26 26 26 26 25 26 25 27 26 26 24 22 27 28 28 27 24 26 25 25 24 25 25 25 25
20 20 21 21 22 22 23 23 23 24 24 24 24 24 26 27 27 27 27 27 27 27 27 27 27 26 24 23 22 22 24 22 25 27 26 26 24 26 26 25 25 25 25 25 25
20 21 21 22 22 22 23 23 24 24 24 24 23 24 27 26 27 27 27 27 27 28 27 27 26 19 20 19 21 23 24 24 24 26 27 24 26 25 25 25 25 25 26 26 26
21 21 22 22 22 23 23 24 24 24 24 26 27 27 28 28 27 27 28 27 27 26 21 24 22 19 21 21 22 24 25 24 26 27 25 25 24 24 24 25 24 25 25 26 26
21 21 22 23 23 24 24 25 26 26 25 28 27 26 28 28 28 28 28 27 25 23 21 21 21 21 25 26 24 24 23 23 23 25 25 22 22 21 22 22 23 23 25 25 25
22 22 23 23 24 24 25 27 27 26 25 29 29 28 29 28 28 28 28 26 23 23 21 22 24 24 24 24 24 23 23 23 24 23 22 21 22 20 22 21 22 23 25 26 26
22 22 23 23 24 25 27 27 27 26 20 25 28 29 29 29 28 29 29 28 21 23 21 21 24 24 22 23 24 20 24 25 24 22 22 21 21 20 20 20 20 22 24 25 25
22 23 23 24 24 25 26 26 27 27 23 28 29 31 29 29 29 29 29 27 21 22 22 25 25 23 23 24 22 23 25 25 25 23 21 21 19 20 18 19 21 21 21 23 23
22 23 24 24 25 25 26 27 27 21 23 28 30 28 27 29 30 29 28 28 24 22 21 22 26 26 27 27 25 25 24 22 22 19 20 22 21 20 18 20 21 20 20 22 23
23 24 24 24 25 25 26 27 20 21 27 28 28 28 26 27 28 28 27 26 24 23 22 24 25 27 27 23 23 22 20 21 22 20 21 20 20 21 20 20 20 18 20 21 23
23 24 25 25 25 26 26 21 23 25 28 30 27 26 27 27 28 28 27 26 26 24 23 24 25 26 25 26 27 24 22 21 23 22 21 20 20 22 21 19 20 20 22 24 25
24 24 25 25 26 26 25 19 22 27 29 29 28 27 26 28 28 27 25 27 27 27 25 22 25 26 25 22 25 23 22 23 24 23 20 19 21 20 19 18 19 18 17 19 21
24 24 25 26 25 25 20 20 24 28 29 27 27 28 27 28 28 26 27 28 28 28 26 24 26 25 28 26 25 25 26 25 22 25 25 21 22 21 18 18 18 18 17 17 17
24 24 26 26 25 25 19 20 26 30 31 29 28 27 27 27 27 26 27 29 29 26 24 23 23 26 27 25 26 24 23 24 22 20 22 22 22 22 20 18 17 16 16 16 17
24 20 26 26 24 20 20 24 29 30 31 29 29 29 28 27 27 27 27 29 30 29 28 26 20 23 27 26 27 25 25 21 20 22 19 19 20 17 19 18 17 15 16 16 16
24 24 26 27 21 19 22 25 29 30 29 28 28 28 26 27 27 27 27 30 31 28 27 27 21 20 21 23 24 26 25 23 20 17 21 20 20 19 19 17 15 15 15 15 15
23 20 27 27 26 25 24 24 26 30 30 30 28 28 26 26 26 26 25 28 29 28 28 26 19 21 20 21 22 24 24 25 22 20 20 20 19 18 18 15 15 15 15 15 16
23 20 21 19 22 22 25 26 26 26 27 28 24 24 25 22 22 23 24 24 26 27 27 22 23 24 23 23 24 25 24 24 24 23 23 23 20 18 18 16 15 15 15 15 14
20 19 21 20 22 22 21 26 25 25 26 25 23 24 23 24 24 24 23 23 25 24 25 20 22 23 23 24 24 24 24 23 24 25 24 19 18 16 16 16 16 17 16 15 15
19 19 19 20 20 20 20 25 24 24 26 26 25 23 24 25 26 26 26 25 24 24 22 22 21 20 20 22 23 22 23 23 23 21 21 19 17 16 16 16 16 16 16 16 17

GFSSW_850_temp_327.txt.gz
Temp
18 19 19 19 20 20 21 21 22 22 23 23 23 23 23 23 23 24 25 25 25 24 24 23 23 22 22 21 21 20 20 22 24 24 25 25 24 23 24 22 22 22 22 21 19
18 19 19 20 20 20 21 21 22 22 23 23 23 23 23 23 24 24 25 25 25 24 24 23 23 22 22 22 21 20 20 23 26 25 25 26 24 25 23 23 22 22 22 21 20
18 19 19 20 20 21 21 22 22 22 23 23 24 24 24 24 24 26 26 26 25 24 23 23 24 24 22 23 22 21 22 25 26 26 27 26 25 25 23 22 22 22 21 21 20
18 19 19 20 20 21 21 22 22 22 23 24 24 24 24 24 25 26 26 25 25 24 24 23 23 23 23 23 23 22 23 24 23 27 27 26 27 24 24 23 24 23 22 21 20
19 19 20 20 21 21 21 22 22 23 23 24 24 24 24 24 26 26 26 26 25 25 24 24 23 24 24 24 24 22 25 26 25 26 27 28 25 25 25 24 23 23 22 21 21
19 19 20 20 21 21 22 22 23 23 23 24 24 25 25 24 26 26 26 26 25 25 25 25 25 24 24 25 24 25 26 26 27 27 28 26 26 27 23 24 23 23 23 22 22
19 19 20 21 21 22 22 22 23 23 23 24 24 25 25 27 26 26 26 26 26 26 26 26 24 25 25 25 25 26 24 27 26 28 27 27 25 24 23 23 23 23 23 23 23
19 20 20 21 21 22 22 23 23 23 24 24 24 24 26 26 26 26 26 26 26 26 26 26 25 25 25 25 25 23 22 22 25 26 27 26 23 24 23 23 23 23 23 23 23
20 20 21 21 22 22 23 23 23 23 24 24 24 24 26 26 27 26 26 26 26 26 25 25 25 24 24 22 22 22 23 24 24 25 26 24 24 24 23 23 23 23 23 24 23
20 21 21 22 22 22 23 23 23 23 24 24 24 24 26 26 27 27 27 26 26 26 25 26 24 20 19 21 22 21 22 23 24 26 26 23 23 23 24 24 23 23 24 24 24
21 21 22 22 22 23 23 24 23 23 24 26 26 26 27 27 27 27 26 26 25 26 22 22 21 21 22 22 23 22 22 23 25 25 24 21 23 22 23 24 24 24 24 24 25
21 22 22 23 23 24 24 25 25 24 24 27 27 27 28 27 26 27 27 26 25 22 20 21 20 21 23 23 22 22 21 23 25 24 23 21 23 21 21 23 24 24 24 24 24
21 22 22 23 24 24 25 24 24 24 24 27 28 27 28 28 27 27 27 26 23 22 22 22 23 23 25 25 24 23 22 22 24 23 22 22 23 21 22 22 22 23 23 23 24
22 22 23 24 24 25 25 24 25 25 20 25 26 28 28 28 27 28 27 27 21 22 21 22 24 23 24 24 22 21 23 25 24 23 21 20 21 21 21 21 21 21 22 22 23
22 23 23 24 25 25 24 26 26 26 22 27 27 29 29 28 28 28 28 27 24 23 22 23 21 22 22 23 23 22 23 23 24 22 20 21 19 19 19 20 20 20 21 22 21
22 23 24 24 25 25 26 27 27 21 25 28 28 27 26 28 28 27 27 27 24 22 21 22 24 23 23 25 24 25 24 21 20 19 20 21 20 21 19 20 20 18 21 21 22
23 24 24 24 25 25 26 27 20 22 26 27 27 26 25 25 27 27 25 24 23 23 23 23 23 25 26 24 23 22 21 20 21 19 19 18 19 21 21 20 20 18 21 23 24
23 24 25 25 25 26 26 21 24 25 24 28 26 24 25 26 26 26 25 24 24 23 21 23 23 25 24 24 22 20 19 20 22 20 21 19 19 21 18 19 20 21 20 22 24
24 24 25 25 25 25 26 19 22 23 27 28 27 27 26 27 27 26 24 25 25 23 24 21 24 26 24 23 24 21 20 22 22 18 19 19 19 19 18 17 18 18 19 20 21
24 24 26 25 25 25 20 19 21 22 28 26 27 26 26 27 27 25 23 26 26 25 25 24 24 25 25 25 24 24 24 22 18 23 23 20 20 20 17 17 17 18 18 17 16
24 25 25 25 25 25 19 19 23 28 29 28 26 27 26 27 26 25 26 28 28 25 23 22 23 26 26 25 25 23 22 21 18 18 21 19 20 19 18 19 16 18 17 17 17
25 21 25 25 23 15 19 21 26 28 29 27 27 27 27 26 26 26 27 27 29 28 28 24 19 23 26 26 24 24 25 19 19 21 17 17 19 18 17 18 17 17 16 17 16
24 25 25 25 20 18 20 22 25 28 28 28 27 27 26 26 26 25 24 27 27 27 25 24 20 20 21 21 23 24 24 22 16 15 19 20 19 17 16 16 17 15 15 16 16
24 20 25 25 23 22 23 24 25 27 25 26 24 25 24 22 21 24 24 25 26 26 26 23 17 20 19 22 21 24 24 23 20 18 19 18 20 17 15 15 15 15 15 15 15
23 18 19 19 21 19 22 23 24 24 25 25 23 22 24 23 22 23 23 22 25 25 25 21 21 20 20 20 21 23 23 23 23 21 20 21 20 20 16 15 14 14 14 15 15
21 19 19 19 19 20 17 20 24 25 24 24 23 24 23 24 24 24 23 23 23 23 23 18 21 22 23 22 21 23 22 22 23 23 21 20 19 16 16 15 14 14 15 15 15
18 18 18 17 17 19 19 22 22 23 24 25 24 22 24 24 25 26 25 25 24 23 21 20 17 17 20 21 21 21 23 24 22 21 19 19 19 15 15 15 14 15 15 16 16

GFSSW_850_temp_333.txt.gz
Temp
18 19 19 20 20 21 21 22 22 22 23 23 23 23 23 23 24 24 24 24 24 23 23 23 23 22 22 22 22 22 25 26 26 26 26 24 25 23 22 23 22 21 21 20 20
18 19 19 20 20 21 21 22 22 23 23 23 23 23 23 24 24 24 25 24 24 24 23 23 23 22 22 22 22 23 25 26 26 26 26 24 25 24 24 23 22 20 20 21 20
18 19 20 20 21 21 21 22 22 23 23 23 23 23 24 24 24 25 25 25 24 24 23 23 23 23 23 23 23 23 26 26 26 26 26 25 25 24 24 24 23 21 20 19 20
18 19 20 20 21 21 21 22 22 23 23 23 24 24 24 24 26 25 25 25 24 24 24 23 23 23 25 25 23 26 25 26 26 26 26 25 25 25 25 25 23 22 20 19 19
19 19 20 20 21 21 22 22 23 23 23 24 24 24 24 25 25 25 26 25 24 24 24 24 24 24 25 25 24 26 27 26 26 26 26 25 25 26 24 23 22 21 20 20 20
19 19 20 21 21 22 22 22 23 23 23 24 24 24 25 26 25 25 25 25 25 24 24 24 24 24 25 25 25 26 26 26 26 26 26 27 25 25 24 22 21 21 21 20 20
19 20 20 21 21 22 22 23 23 23 24 24 24 24 25 25 25 25 25 25 24 24 24 24 24 24 24 25 24 26 27 28 27 26 27 27 26 26 24 23 22 21 21 21 20
19 20 20 21 22 22 22 23 23 23 24 24 24 25 25 25 25 25 25 25 24 24 24 24 24 24 24 24 25 27 26 27 27 27 26 27 27 27 24 23 23 22 21 21 21
20 20 21 21 22 22 23 23 23 23 24 24 24 25 25 25 25 25 25 25 25 25 24 24 24 24 25 27 25 24 25 26 27 27 27 27 27 27 23 23 23 22 22 22 21
20 21 21 21 22 22 23 23 23 24 24 24 24 24 26 25 25 25 24 25 25 25 24 24 24 24 24 26 25 26 26 25 26 26 27 27 27 27 24 24 24 23 23 22 22
20 21 21 22 22 22 23 23 23 23 24 25 25 26 26 25 25 25 25 25 25 25 26 23 27 25 24 25 25 25 23 25 26 27 26 27 27 28 25 24 25 24 23 23 23
21 21 21 22 22 23 23 23 23 23 25 25 25 26 26 26 26 25 25 25 25 26 24 26 26 25 26 25 25 25 25 26 26 27 26 27 26 28 26 24 25 25 24 24 24
21 21 22 22 23 23 23 23 23 23 24 25 26 26 27 26 26 26 25 25 25 24 24 26 26 24 25 26 26 26 26 25 26 26 25 24 26 26 25 25 24 24 24 24 24
21 22 22 23 23 24 23 24 24 24 27 27 27 27 27 27 27 27 26 26 24 25 24 26 25 25 25 26 26 26 25 25 25 26 26 24 27 27 25 24 24 24 24 24 24
21 22 23 23 24 24 24 25 25 25 26 27 27 27 27 28 26 25 26 26 26 24 25 26 25 25 25 26 25 25 25 25 25 25 25 25 25 28 23 26 25 24 24 24 24
22 23 23 24 24 24 25 25 25 27 25 27 27 27 28 27 27 25 25 26 24 25 24 24 23 25 26 26 26 25 25 24 24 23 24 23 24 29 29 26 26 24 23 23 22
22 23 24 24 24 25 25 25 27 27 26 27 27 27 28 27 27 27 27 26 27 26 26 26 25 25 25 25 25 25 25 26 26 25 27 22 23 28 27 25 23 23 23 22 22
23 23 24 24 24 25 26 27 26 26 26 26 26 26 28 27 28 27 26 27 26 27 26 27 28 25 26 26 27 24 25 27 25 27 28 22 26 31 24 22 21 20 21 20 20
23 24 24 24 25 25 26 25 27 26 26 27 27 27 27 27 27 27 27 28 28 27 27 26 27 26 26 25 27 24 25 26 26 22 25 27 27 28 24 25 21 21 20 19 19
24 24 24 24 25 25 25 23 25 24 26 27 28 27 28 27 28 27 26 27 27 26 26 27 26 27 26 26 24 26 26 27 25 25 25 27 26 29 29 27 24 22 21 19 17
24 25 24 24 25 25 26 24 24 24 25 28 27 27 27 27 27 27 27 27 27 25 25 26 27 27 26 26 28 25 26 24 25 25 26 26 27 27 26 26 23 23 21 19 17
24 24 23 24 24 16 24 23 23 26 25 27 27 27 27 26 27 27 27 27 24 25 26 25 27 27 28 25 24 26 27 27 27 26 24 24 26 25 25 23 21 21 20 17 17
24 23 23 24 25 24 22 24 24 26 25 27 27 26 25 25 27 26 26 26 24 26 26 25 26 27 28 27 26 27 26 24 24 24 26 25 26 26 24 24 23 20 19 16 16
24 24 23 23 21 23 23 25 26 24 24 23 25 25 26 25 24 26 26 26 24 24 22 25 25 27 28 27 26 26 26 25 26 26 26 26 26 27 27 28 26 21 19 16 15
23 20 20 24 22 21 21 22 25 26 25 24 26 26 26 26 25 26 25 26 26 24 23 26 26 24 25 25 25 26 27 26 25 26 25 27 26 27 27 24 21 21 18 17 16
21 20 19 18 17 21 19 23 25 25 25 25 26 25 25 26 26 26 26 25 26 25 25 24 25 23 26 26 25 24 26 26 26 25 24 25 25 27 21 19 19 18 17 17 17
19 18 19 16 20 22 23 23 24 23 24 24 25 25 25 25 23 24 24 23 23 25 25 25 24 23 25 23 23 24 25 26 26 25 26 25 27 21 22 20 18 17 16 17 16

GFSSW_850_temp_336.txt.gz
Temp
18 19 19 20 20 21 21 21 22 22 22 22 23 23 23 23 24 24 24 24 24 23 24 23 23 22 23 24 23 24 30 30 29 29 29 28 28 26 26 25 25 25 26 24 20
18 19 19 20 20 21 21 22 22 23 23 23 23 23 23 24 24 24 24 24 24 24 23 23 24 23 26 26 26 28 31 30 30 30 30 28 29 27 27 26 26 24 24 22 21
18 19 19 20 20 21 21 22 22 23 23 23 23 23 24 24 24 26 25 25 24 24 23 23 24 24 28 27 28 28 30 30 29 29 29 29 28 28 28 28 27 25 23 22 21
18 19 19 20 21 21 22 22 23 23 23 23 24 24 24 24 28 25 25 25 24 24 23 24 25 27 29 30 28 30 29 29 28 29 29 29 28 29 28 28 27 25 23 22 22
19 19 20 20 21 21 22 22 23 23 24 24 24 24 24 25 26 26 25 25 24 24 25 26 27 28 30 30 29 30 30 29 29 29 29 28 28 29 28 27 26 25 23 23 23
19 20 20 20 21 21 22 23 23 24 24 24 24 24 24 28 25 26 25 25 24 24 25 25 26 26 29 29 29 29 30 30 29 29 29 29 29 28 28 26 26 24 24 24 24
20 20 20 21 21 21 22 23 23 24 24 24 24 25 24 26 25 25 25 24 24 24 26 26 26 27 26 29 28 29 31 31 30 30 30 29 29 29 28 26 26 25 24 24 24
20 20 20 21 21 22 22 23 23 24 24 24 24 25 27 25 25 25 24 24 24 24 25 25 26 27 26 28 29 31 31 31 30 30 29 30 30 31 28 26 27 26 25 25 24
20 20 21 21 21 22 22 23 23 24 24 24 25 24 27 25 25 25 25 25 25 26 26 25 26 27 29 30 29 28 30 30 30 30 30 30 30 31 28 27 28 26 26 25 25
20 21 21 21 22 22 22 23 23 24 24 24 25 25 26 27 25 25 25 25 26 27 27 27 29 30 31 31 30 29 30 30 30 31 30 30 30 32 29 28 28 28 27 26 26
21 21 21 21 22 22 23 23 23 23 24 27 28 27 27 26 25 26 26 26 27 28 30 29 31 31 30 30 30 30 28 30 31 31 30 30 31 32 31 29 29 29 28 26 26
21 21 21 22 22 23 23 23 24 24 28 26 26 26 26 27 27 27 26 28 28 30 29 30 31 30 30 29 30 31 30 31 31 30 30 31 31 32 32 30 30 30 29 28 27
21 21 22 22 23 23 23 23 24 25 29 27 27 28 27 27 29 28 27 28 29 29 29 30 30 29 29 30 30 30 30 30 30 31 30 28 32 31 31 30 29 29 29 28 28
21 21 22 23 23 23 23 24 24 24 30 29 29 29 28 29 29 28 28 28 28 29 29 30 29 29 29 29 30 31 29 30 30 31 31 29 31 32 32 31 29 28 28 28 28
21 22 23 23 24 23 24 25 25 24 29 30 30 28 28 30 29 28 27 28 30 29 29 29 30 29 30 29 29 29 29 29 30 31 31 31 31 33 31 32 31 30 29 28 28
22 23 23 23 24 24 25 25 24 29 28 30 30 30 30 30 30 28 28 28 28 30 30 30 29 29 31 30 29 29 30 31 30 31 32 30 30 33 32 31 31 31 29 28 28
22 23 23 24 24 25 25 24 30 30 30 30 31 31 32 31 30 31 30 30 30 30 31 31 31 30 29 30 30 29 31 31 31 32 31 31 30 32 32 31 30 28 27 27 26
23 23 24 24 24 25 24 30 29 30 31 31 31 32 31 31 31 31 31 31 31 31 31 31 31 31 30 31 31 31 31 30 28 30 31 30 30 33 32 30 27 26 25 24 24
23 24 24 24 25 25 27 30 31 31 31 31 31 31 31 31 31 31 31 32 32 32 31 31 32 31 30 31 31 30 30 32 31 32 31 32 32 33 32 32 30 28 26 25 24
23 23 23 24 25 25 30 26 30 30 31 32 31 32 31 31 31 31 32 32 32 31 32 32 30 32 31 29 30 30 31 31 31 28 28 31 31 32 31 32 31 30 29 26 23
23 26 24 25 25 27 30 30 30 29 29 31 32 32 32 31 32 32 32 31 31 31 31 33 32 31 30 31 32 30 30 30 31 31 29 29 31 33 31 31 30 30 28 26 23
25 28 24 25 28 28 30 29 26 31 29 31 31 32 32 31 32 32 31 31 29 30 32 32 32 31 32 31 30 31 31 32 31 29 31 29 30 32 31 30 30 30 26 24 22
26 25 24 25 29 30 29 30 29 31 31 32 31 31 31 31 30 31 31 29 28 31 31 31 31 30 31 31 31 30 31 31 31 31 29 29 30 33 31 30 30 29 25 21 18
25 28 25 25 25 29 29 30 30 28 30 29 31 31 31 31 30 30 31 30 28 29 26 27 31 30 30 31 31 30 31 30 30 29 30 30 30 31 31 30 29 26 25 19 17
24 27 24 28 28 29 28 29 30 30 30 29 30 31 31 30 30 30 31 31 29 27 28 30 29 30 30 31 30 30 30 30 30 30 29 29 29 30 30 28 26 24 23 19 16
25 26 23 26 25 27 22 29 30 30 30 30 30 31 30 30 30 30 30 30 30 30 30 31 28 28 28 30 30 29 30 30 30 30 30 30 29 31 28 27 26 24 22 21 18
20 20 21 23 27 28 30 29 29 29 28 29 30 30 29 30 28 29 29 29 29 28 29 29 28 28 27 29 29 27 29 30 30 30 30 28 29 29 28 26 24 23 21 21 21

GFSSW_850_temp_339.txt.gz
Temp
19 19 20 20 20 21 21 22 22 22 22 23 23 23 23 23 24 24 26 25 24 24 24 24 24 25 25 27 27 28 25 27 31 21 31 30 31 30 29 28 28 28 28 26 24
19 19 20 20 21 21 21 22 22 23 23 23 23 23 23 24 24 26 26 25 24 24 24 26 26 26 29 29 29 22 26 32 33 33 32 31 32 30 30 29 29 28 27 25 24
19 19 20 21 21 21 21 22 23 23 23 23 23 24 24 24 25 27 26 25 25 24 24 26 26 27 30 31 31 27 31 33 32 32 32 32 32 31 31 31 30 28 26 24 24
19 20 20 21 21 21 22 22 23 23 23 23 24 24 24 25 29 26 26 25 25 24 26 27 28 30 32 31 32 28 32 32 31 32 32 32 31 32 31 31 30 28 26 25 25
19 20 20 21 21 22 22 22 23 23 24 24 24 24 25 25 28 26 26 25 25 24 27 29 30 30 30 33 32 31 33 32 31 32 32 31 31 32 31 30 29 27 26 26 26
19 20 21 21 21 22 22 23 23 24 24 24 24 25 25 29 26 26 25 25 26 26 28 28 29 29 32 32 32 33 33 33 31 32 32 32 31 30 31 30 29 27 27 27 27
20 20 21 21 22 22 22 23 23 24 24 24 25 25 25 28 27 26 26 26 26 27 29 29 29 30 30 33 32 33 32 33 33 32 32 32 32 32 30 30 29 28 27 27 27
20 20 21 21 22 22 23 23 24 24 24 24 25 25 29 26 27 26 27 26 27 27 28 29 29 30 30 31 32 33 33 24 32 33 32 32 23 31 31 30 30 28 28 27 27
20 21 21 21 22 22 23 23 24 24 25 25 25 26 29 27 27 27 28 28 28 28 29 28 29 32 32 32 29 32 22 23 31 33 33 33 31 32 32 31 31 29 28 28 27
20 21 21 22 22 23 23 23 24 24 24 25 25 27 28 29 29 28 28 28 29 30 30 30 31 31 31 33 22 23 27 27 31 22 33 32 31 34 32 32 31 30 29 28 28
20 21 21 22 22 23 23 23 24 24 25 30 30 30 29 29 28 28 28 29 29 30 28 31 30 25 32 33 33 33 32 30 32 33 33 33 33 33 33 33 32 31 30 29 29
21 21 21 22 22 23 23 26 27 28 29 29 29 29 29 29 29 29 29 30 31 28 32 28 23 30 33 33 33 33 27 29 33 33 33 33 33 34 34 34 33 33 31 30 29
21 21 22 22 23 23 23 26 26 27 31 29 30 30 29 30 31 30 30 31 31 31 32 21 32 32 32 33 31 32 32 32 33 34 34 32 24 34 34 34 33 33 33 32 30
21 22 22 23 23 24 25 25 25 26 31 31 31 31 30 30 31 31 30 31 32 31 32 31 33 32 32 32 33 28 33 33 33 33 30 33 25 22 27 34 33 32 32 32 32
22 22 23 23 23 25 26 25 25 26 28 32 32 31 31 31 32 31 30 31 31 32 27 22 33 33 33 32 33 33 33 33 34 34 31 31 34 31 28 33 34 34 32 32 31
22 23 23 23 24 24 25 25 26 30 30 32 32 32 32 32 32 31 30 30 31 33 33 33 33 33 34 33 33 34 33 34 35 36 32 33 34 33 33 33 34 33 32 31 30
23 23 23 24 26 24 25 27 31 32 34 32 32 33 34 33 33 33 32 32 33 30 25 34 34 34 33 34 33 34 35 33 33 34 34 34 33 34 34 33 32 31 30 29 29
23 23 24 25 24 25 26 31 30 33 34 35 34 34 33 34 33 34 34 34 35 26 22 33 31 34 34 34 33 34 34 33 31 33 34 35 32 34 35 33 32 32 30 29 28
23 24 23 24 26 25 28 32 33 34 34 34 34 34 34 35 33 34 34 33 34 35 33 34 33 35 34 35 34 33 33 35 33 34 34 35 35 36 35 35 34 32 32 31 29
24 24 26 25 25 26 31 30 33 34 34 35 33 34 34 34 33 34 34 35 34 34 35 34 32 35 34 34 34 34 35 32 34 31 31 33 33 34 34 34 33 32 32 31 29
24 27 26 25 26 28 32 34 33 33 33 34 34 34 35 34 34 35 35 34 34 35 34 35 34 34 34 34 34 34 33 34 34 33 32 32 33 35 33 33 32 32 32 29 29
26 30 26 26 29 31 34 33 31 34 33 35 35 35 34 34 34 34 34 34 33 34 33 35 34 33 34 36 35 34 33 34 33 32 34 33 33 35 33 34 33 32 30 28 27
28 29 26 27 31 33 33 33 33 34 34 34 34 34 34 34 32 34 34 33 32 33 33 34 33 32 34 36 35 33 34 34 34 34 32 31 32 36 34 33 32 31 29 28 24
28 31 28 28 30 32 33 33 33 32 34 33 34 33 33 33 34 33 33 34 32 32 29 30 32 32 32 33 34 33 33 34 34 32 32 33 33 33 33 32 32 30 28 27 22
28 31 30 31 32 33 33 34 33 33 33 33 33 33 33 32 33 33 33 34 33 29 30 32 31 32 33 33 33 33 33 33 32 32 32 32 32 33 32 31 30 29 27 26 22
25 29 29 31 32 32 25 32 33 34 33 33 32 33 34 32 33 32 33 33 32 32 32 33 31 31 30 32 32 32 33 33 33 33 32 32 32 34 32 30 29 28 26 26 24
22 24 26 30 32 32 32 32 33 33 33 32 33 33 33 33 32 32 32 32 33 32 32 32 31 30 29 32 32 31 32 33 33 33 32 31 32 32 30 28 27 27 26 25 24

GFSSW_850_temp_342.txt.gz
Temp
18 19 19 20 20 21 22 22 22 22 22 22 23 23 23 24 24 24 25 26 25 25 25 25 26 26 27 28 27 23 24 22 28 26 31 32 32 31 30 30 30 29 28 26 25
19 19 19 20 21 22 22 23 23 23 23 23 23 23 24 24 24 24 26 26 25 25 25 26 28 28 28 28 25 19 22 29 32 28 30 33 32 31 31 31 30 29 27 26 25
19 19 20 20 21 22 22 23 23 23 23 23 23 24 24 24 24 27 27 26 25 25 25 27 27 28 27 25 19 20 23 33 33 33 33 33 33 30 29 25 30 29 27 26 25
19 19 20 20 21 22 22 23 23 23 23 24 24 24 24 24 29 27 27 26 26 25 25 28 29 20 23 29 25 26 30 33 33 33 33 33 33 31 30 31 31 28 27 26 26
19 20 20 20 21 22 23 23 23 24 24 24 24 24 24 25 29 27 27 26 26 26 26 28 26 19 21 29 29 28 33 33 33 33 33 32 32 33 31 31 30 28 27 27 26
19 20 21 21 21 22 23 23 24 24 24 24 24 24 25 28 28 27 27 26 26 27 28 30 30 29 27 28 28 30 34 33 33 33 33 33 33 32 31 31 29 28 28 27 27
19 20 21 21 22 23 23 24 24 24 24 24 25 25 24 28 28 27 27 27 27 28 29 30 30 31 32 32 33 29 27 31 33 33 33 30 29 27 27 31 30 29 28 28 28
20 20 21 21 22 23 23 24 24 24 24 25 25 25 26 28 28 28 28 28 28 28 29 30 31 31 32 32 25 23 23 22 28 30 28 33 22 26 27 30 30 30 29 29 28
20 21 21 22 22 23 24 24 24 25 25 25 25 26 29 29 28 29 29 29 30 30 30 30 31 31 30 24 21 21 22 21 26 26 27 30 24 25 22 26 31 30 29 29 29
20 21 21 22 23 23 24 24 24 25 25 25 26 26 29 30 30 30 29 30 30 31 31 31 25 26 25 20 25 22 24 25 25 25 27 29 32 25 25 22 24 30 30 29 29
20 21 22 22 23 23 24 24 24 25 24 29 31 30 31 31 30 30 30 30 30 31 28 23 25 24 29 30 32 29 29 29 31 29 29 31 33 33 26 24 23 31 30 30 30
21 21 22 23 23 24 24 25 30 29 29 28 31 31 31 31 31 31 30 31 32 27 29 27 25 29 29 31 33 31 30 30 33 34 31 33 29 30 29 31 31 32 31 31 30
21 22 22 23 23 24 25 26 28 29 31 31 31 31 31 31 32 32 31 32 32 29 25 23 27 32 34 33 33 33 33 33 34 35 33 33 25 26 25 28 34 34 31 31 31
22 22 23 23 23 24 25 27 27 28 30 32 32 32 31 31 32 32 32 31 33 26 25 27 29 34 34 33 34 32 34 34 34 32 27 31 23 23 23 27 34 34 33 33 31
22 23 23 24 25 26 28 28 28 28 29 33 33 33 32 32 32 33 32 33 32 32 33 32 32 33 33 34 34 34 35 34 35 35 34 34 32 29 28 32 34 34 33 33 32
22 23 24 23 25 26 27 28 28 30 30 33 34 33 33 33 33 33 32 32 32 32 31 33 33 35 35 35 35 35 35 35 35 35 31 34 33 31 33 33 33 33 32 31 31
23 23 24 25 26 27 28 28 30 30 35 33 33 34 34 34 34 34 33 33 29 20 22 25 31 36 35 34 34 34 35 32 33 32 31 35 35 34 34 33 33 32 31 30 30
23 24 24 25 25 25 27 30 29 35 34 36 35 35 34 35 35 34 34 33 30 29 24 25 30 35 36 35 33 34 35 33 31 32 33 36 33 34 35 34 34 33 33 31 30
23 24 25 26 26 25 28 30 33 35 36 36 36 34 34 34 31 23 33 33 24 28 30 26 28 36 36 36 35 34 33 35 34 35 34 36 35 35 36 35 33 33 33 32 31
24 24 26 27 27 27 30 28 34 36 36 36 35 35 34 33 35 33 35 36 35 33 36 35 33 36 35 35 36 34 35 33 34 32 31 34 34 33 33 33 33 33 33 31 30
24 27 29 28 28 29 30 34 35 35 35 36 35 35 35 34 36 35 35 36 36 36 35 35 34 35 36 35 35 35 34 35 35 34 32 32 34 35 33 33 33 33 32 30 29
25 30 29 28 29 31 32 35 34 35 34 36 36 36 35 36 35 35 35 36 35 35 34 35 34 33 34 36 37 36 34 34 33 32 34 33 33 37 34 34 34 33 30 28 28
26 30 29 29 30 32 34 35 34 35 35 35 35 36 36 35 33 35 35 35 34 34 33 34 33 32 33 36 37 35 35 35 35 34 32 31 32 37 36 35 33 31 30 28 25
25 31 30 29 30 32 33 34 34 34 35 35 35 35 34 34 35 33 34 36 35 34 31 32 33 32 31 32 34 33 34 35 34 32 33 33 33 34 34 34 32 31 30 27 25
26 32 32 31 32 33 34 35 34 34 34 34 34 34 34 33 34 34 35 35 35 32 32 33 31 32 33 33 34 33 33 34 33 33 32 33 33 33 33 31 30 29 28 28 27
26 28 29 32 33 33 31 33 34 35 35 34 33 34 35 34 34 33 34 34 34 32 33 34 31 32 31 33 33 33 34 34 34 34 34 33 33 34 31 30 28 28 28 28 27
23 25 27 30 33 33 33 34 33 34 34 34 34 34 34 33 33 34 34 34 34 33 33 33 32 31 30 31 31 30 33 34 34 34 33 31 31 32 30 29 28 27 27 27 25

GFSSW_850_temp_348.txt.gz
Temp
19 19 20 20 21 21 22 22 22 22 22 22 23 23 23 24 24 24 25 25 25 25 24 24 24 23 23 22 20 21 20 21 24 27 28 29 29 28 28 25 25 24 23 23 22
19 19 20 20 21 21 22 22 22 22 22 23 23 23 23 24 25 25 27 26 25 24 25 24 24 24 22 22 22 21 21 22 26 27 29 29 29 29 27 26 24 23 23 23 22
19 19 20 21 21 21 22 23 23 23 23 23 23 23 23 24 25 27 27 26 25 25 25 24 26 24 21 21 21 21 22 26 27 27 28 29 29 29 26 24 24 23 23 23 23
19 20 20 21 21 22 23 23 23 23 23 23 23 23 24 24 25 27 27 26 25 25 24 22 25 23 21 21 21 21 24 24 27 28 28 29 30 28 27 26 25 24 24 23 23
19 20 20 21 21 22 23 23 23 23 24 23 23 23 24 24 27 27 27 26 26 25 25 24 22 20 20 21 21 23 24 28 30 30 29 28 27 27 27 25 24 24 24 23 23
19 20 21 21 22 22 23 23 24 24 24 24 24 24 24 23 28 27 27 26 26 26 25 23 20 23 22 21 22 24 25 27 28 29 29 28 27 27 26 25 24 24 24 24 24
19 20 21 21 22 22 23 24 24 24 24 24 24 24 24 27 28 27 27 27 27 26 25 23 24 22 23 23 24 25 25 26 28 28 27 29 25 26 25 26 25 25 25 24 24
19 20 21 22 22 23 23 24 24 24 24 24 24 24 25 28 27 27 28 28 27 26 25 26 25 23 21 24 25 24 23 24 25 26 27 26 24 25 24 26 26 25 25 25 25
20 20 21 22 22 23 24 24 24 24 24 24 24 24 26 28 28 28 28 28 28 27 26 25 25 24 23 23 21 22 23 23 25 27 27 26 24 24 24 24 25 26 26 26 26
20 21 21 22 23 23 24 24 25 25 24 24 24 23 27 29 29 29 29 29 28 28 28 26 24 22 21 21 25 23 23 23 24 25 27 26 23 23 25 23 23 25 25 26 26
20 21 22 22 23 24 24 24 25 25 25 26 27 28 29 29 30 29 30 29 29 28 24 23 23 23 23 24 25 24 24 24 26 26 28 26 24 22 23 22 23 24 26 27 27
21 21 22 22 23 24 24 25 26 26 25 29 28 27 29 29 29 30 30 29 28 25 25 23 24 25 26 27 25 23 23 23 26 28 27 23 24 23 23 23 24 25 25 26 27
21 22 22 23 23 24 25 27 27 26 25 29 29 29 30 30 30 30 30 30 27 26 24 24 27 28 27 26 26 24 23 25 28 27 26 24 23 22 23 23 23 25 26 26 26
21 22 22 23 23 24 27 27 26 25 21 25 28 30 30 31 30 31 31 30 26 26 25 23 26 29 30 30 26 24 27 28 28 26 24 25 23 21 21 22 23 23 24 26 27
22 22 22 23 24 26 27 27 26 26 22 29 28 31 32 31 31 31 31 30 25 26 25 26 27 28 28 31 30 30 31 30 29 25 25 26 24 24 21 22 23 25 25 27 28
22 23 23 23 24 25 27 27 27 22 23 29 30 30 29 31 31 32 31 30 28 27 26 26 29 28 29 31 30 32 29 26 23 22 22 24 24 24 23 25 26 27 29 29 29
22 23 23 24 25 25 26 27 21 22 27 28 28 29 28 27 27 30 30 28 26 26 25 24 27 30 32 30 29 28 24 23 23 24 23 22 24 24 26 26 26 26 29 27 28
22 23 24 25 26 27 27 22 24 25 27 30 28 26 25 22 26 26 27 26 27 25 22 24 26 29 31 30 30 30 25 23 26 24 26 24 25 26 27 29 31 32 31 28 28
23 23 24 25 25 25 25 21 22 25 31 30 27 24 23 24 25 24 26 25 26 25 26 25 26 30 31 31 30 31 28 26 25 24 24 23 27 28 27 28 28 29 29 27 27
23 23 25 25 25 25 21 20 24 27 29 28 27 27 23 24 26 25 26 28 29 26 26 27 26 28 31 31 31 29 29 26 21 26 27 24 26 24 26 26 25 25 26 27 26
23 24 27 26 25 24 20 21 26 29 30 31 29 28 24 23 23 24 27 29 28 26 25 25 24 27 29 29 28 28 27 25 22 21 23 22 24 23 24 24 24 24 26 26 25
23 19 27 27 23 21 20 25 28 29 30 32 32 28 24 24 24 24 25 28 30 27 26 25 22 24 27 27 28 29 29 24 22 25 21 21 23 25 26 25 24 24 25 26 26
23 24 27 27 21 20 23 25 28 28 28 31 30 30 30 26 29 26 30 32 32 28 28 28 23 21 23 24 26 27 27 29 21 19 24 23 23 23 23 23 24 24 25 26 26
23 19 27 27 27 24 25 24 27 30 30 32 31 31 29 29 28 30 31 31 32 31 31 29 21 22 21 24 24 27 26 27 24 21 23 22 26 24 22 22 23 25 27 27 26
24 21 24 21 23 24 25 25 25 26 31 33 31 31 30 30 27 27 28 28 28 29 29 25 25 23 23 23 27 27 28 27 26 25 25 25 22 21 21 21 24 26 25 24 24
23 22 23 22 24 23 22 25 26 27 28 29 30 31 28 28 27 28 27 27 29 28 28 23 25 24 27 27 27 27 26 26 26 27 27 22 23 22 24 25 25 25 25 24 24
22 22 22 23 21 22 24 25 26 27 30 31 30 28 27 29 30 30 30 28 29 28 25 24 23 22 23 24 25 24 26 26 26 26 25 22 22 21 22 23 23 24 24 24 23

GFSSW_850_temp_354.txt.gz
Temp
18 18 19 19 20 21 22 22 22 22 22 22 22 23 23 23 23 24 25 25 25 24 23 23 22 22 22 22 22 22 20 21 23 24 25 26 25 24 24 23 23 23 23 23 20
18 18 19 20 21 21 22 22 22 22 22 22 23 23 23 23 24 25 26 25 25 24 23 23 22 22 22 21 22 20 21 23 24 24 25 27 26 25 23 23 23 22 22 22 21
18 18 19 20 21 21 22 22 22 22 22 23 23 23 23 24 25 26 26 26 25 24 24 24 23 23 22 21 21 21 23 24 24 25 26 27 25 26 23 22 23 21 20 21 21
18 18 19 20 21 21 22 22 23 23 23 23 23 23 24 24 25 26 27 26 25 24 24 24 23 23 22 22 21 22 23 23 25 26 26 27 27 25 24 25 25 24 23 22 21
18 18 19 20 21 22 22 23 23 23 23 23 23 23 24 24 26 26 26 25 25 25 24 25 24 23 23 22 22 21 24 25 26 27 27 27 26 26 25 25 25 23 22 22 21
19 19 19 20 21 22 22 23 23 23 23 23 23 24 24 23 26 26 26 26 25 25 25 25 25 25 21 21 22 23 23 25 26 26 27 26 25 26 24 24 23 23 22 22 22
19 19 20 20 21 22 23 23 23 23 23 23 23 24 24 25 26 26 26 26 25 25 24 25 25 24 23 22 23 24 24 25 25 26 26 26 25 24 24 23 23 22 22 22 22
19 19 20 21 21 22 23 23 23 23 23 23 24 24 25 26 26 26 26 25 25 24 24 24 24 24 23 23 23 23 23 23 25 25 26 26 23 24 24 23 23 23 22 22 22
19 19 20 21 21 22 23 23 23 23 23 24 24 24 25 26 26 27 26 26 25 24 24 24 23 23 22 22 21 21 22 23 24 25 24 24 23 23 24 23 23 23 23 23 22
19 20 20 21 21 22 23 23 23 24 24 23 24 24 26 27 27 27 26 25 25 24 23 23 22 20 20 20 22 24 23 23 23 24 24 24 22 23 23 23 23 23 23 23 23
19 20 20 21 22 22 23 23 23 23 23 26 26 26 27 27 27 27 26 25 24 24 22 21 20 21 21 22 25 24 24 24 24 25 24 23 22 23 23 22 22 23 23 23 23
20 20 20 21 22 23 23 24 23 23 23 26 26 26 27 27 26 27 27 25 24 22 22 22 21 23 24 24 24 24 23 23 24 25 25 24 23 23 21 21 23 23 23 23 24
20 21 21 22 23 23 24 23 24 24 22 26 27 27 28 28 28 27 27 26 25 23 22 22 25 25 25 25 25 23 24 23 25 25 25 24 23 23 22 22 23 23 25 25 25
21 21 21 22 23 23 24 24 24 24 20 25 26 28 29 28 28 29 28 28 25 24 22 22 24 26 26 25 24 23 24 25 25 23 23 24 22 23 23 23 22 24 25 26 26
21 21 21 22 23 24 24 24 25 24 23 26 27 28 29 29 29 28 28 28 25 24 24 25 26 26 26 26 25 26 26 24 24 22 23 23 22 22 21 26 24 25 28 28 28
21 21 21 22 23 24 24 25 24 21 24 27 28 27 27 27 29 28 28 28 27 26 24 24 26 26 26 28 26 27 25 22 19 20 21 22 23 23 23 25 25 26 29 30 30
21 22 22 23 24 24 25 24 21 21 25 27 27 26 25 24 27 27 27 26 25 26 23 24 26 26 27 28 27 25 22 22 23 21 22 20 22 22 25 24 25 26 30 30 30
22 22 23 24 24 24 25 22 23 24 24 26 24 24 26 24 25 26 26 25 24 24 22 23 26 28 28 28 28 27 24 22 26 23 22 22 22 25 25 25 26 28 30 30 30
22 22 23 24 24 24 25 22 23 23 26 27 26 26 25 24 25 26 25 24 24 23 25 23 25 27 27 28 28 26 25 23 19 18 21 21 22 24 25 25 25 27 29 30 29
22 23 24 24 24 25 22 20 22 23 26 26 26 26 25 24 25 25 26 26 26 24 26 24 25 26 27 28 27 28 24 24 19 25 26 21 22 22 26 25 24 24 27 29 28
23 24 24 24 24 25 20 19 22 26 26 26 26 24 24 23 23 23 26 26 26 24 25 22 23 26 26 27 26 24 24 19 19 18 21 21 22 20 23 23 23 23 27 28 27
22 19 24 24 22 15 19 20 25 25 26 25 26 25 23 22 22 23 24 25 27 25 25 23 20 23 26 24 23 25 26 20 21 23 16 17 21 24 19 19 22 25 27 27 26
23 22 22 23 19 18 20 22 25 25 25 26 25 25 23 22 25 23 24 27 26 25 23 22 21 21 23 23 25 25 25 19 16 16 19 20 21 23 21 22 25 24 25 25 25
22 18 21 23 22 20 23 23 24 27 25 26 27 27 26 25 22 26 26 26 27 27 26 24 18 22 22 24 23 25 26 24 21 20 20 19 22 22 22 21 21 23 24 24 25
22 18 20 19 20 21 23 22 23 24 26 27 27 28 28 26 26 26 26 26 26 25 24 23 24 22 23 22 23 24 24 24 22 22 23 23 19 21 21 21 22 22 23 23 24
22 20 21 19 19 20 18 23 24 24 23 26 27 26 26 25 25 25 26 26 27 26 25 19 23 22 25 24 22 23 23 22 21 22 20 20 20 21 23 21 22 23 23 23 25
21 22 22 17 18 19 19 23 25 22 25 25 25 25 26 26 27 28 27 27 27 26 23 23 19 19 21 22 22 22 23 23 24 23 23 23 23 22 21 20 22 24 25 25 25